Location: Unspecified
(0.0000°N, 0.0000°E)
Time: 12:48:20
(UTC+00:00)

Vanguard 2 - Pass Details

Date: 23 September 2019
Orbit: 554 x 2937 km, 32.9° (Epoch: 13 October)

Event Time Altitude Azimuth Distance (km) Brightness Sun altitude
Rises 19:06:39 0° 213° (SSW) 5,164 12.2 -18.6°
Reaches altitude 10° 19:10:37 10° 200° (SSW) 4,527 11.7 -19.6°
Maximum altitude 19:21:17 27° 147° (SSE) 4,057 10.9 -22.2°
Enters shadow 19:26:51 22° 121° (ESE) 4,563 10.9 -23.6°
Drops below altitude 10° 19:34:35 10° 97° (E) 5,742 - -25.6°
Sets 19:40:25 0° 86° (E) 6,783 - -27.0°
